Location: Unspecified
(0.0000°N, 0.0000°E)
Time: 12:20:15
(UTC+00:00)

Envisat - Pass Details

Date: 03 December 2021
Orbit: 764 x 766 km, 98.2° (Epoch: 07 December)

Event Time Altitude Azimuth Distance (km) Brightness Sun altitude
Rises 04:41:16 0° 9° (N) 3,212 6.1 -15.8°
Reaches altitude 10° 04:43:34 10° 7° (N) 2,290 5.3 -15.3°
Maximum altitude 04:48:36 75° 282° (WNW) 791 2.9 -14.1°
Drops below altitude 10° 04:53:40 10° 197° (SSW) 2,301 5.6 -13.0°
Sets 04:55:59 0° 195° (SSW) 3,229 6.3 -12.4°
